Regional Weather Roundup
Issued by NWS Northern Indiana

Home | Current Version | Previous Version | Graphics & Text | Print | Product List | Glossary On
Versions: 1 2 3 4 5 6 7 8 9 10 11 12 13 14 15 16 17 18 19 20 21 22 23 24 25 26 27 28 29 30 31 32 33 34 35 36 37 38 39 40 41 42 43 44 45 46 47 48 49 50
000
ASUS43 KIWX 031300
RWRIWX

KIWX WEATHER ROUNDUP
NATIONAL WEATHER SERVICE NORTHERN INDIANA
900 AM EDT FRI JUL 03 2015

NOTE: "FAIR" INDICATES FEW OR NO CLOUDS BELOW 12,000 FEET WITH NO
SIGNIFICANT WEATHER AND/OR OBSTRUCTIONS TO VISIBILITY.

* THESE STATIONS ARE NOT UNDER NWS QUALITY CONTROL. THEY ALSO MAY NOT
  REPORT WEATHER SUCH AS PRECIPITATION OR FOG.

INZ001>027-031400-
NORTHERN INDIANA

CITY           SKY/WX    TMP DP  RH WIND       PRES   REMARKS
GARY*          CLOUDY    64  57  77 E5        29.99R
SOUTH BEND     MOSUNNY   65  57  75 E6        30.00R
ELKHART*       SUNNY     63  57  82 E5        30.00R
GOSHEN         MOSUNNY   63  57  81 E8        29.99R
ANGOLA*          N/A     61  54  77 E5        30.00R
FORT WAYNE     PTSUNNY   63  57  81 E9        29.99R
PERU/GRISSOM   PTSUNNY   64  55  74 E8        29.95S

$$
INZ028>050-031400-
CENTRAL INDIANA

CITY           SKY/WX    TMP DP  RH WIND       PRES   REMARKS
LAFAYETTE      CLOUDY    64  56  75 NE7       29.94S
KOKOMO*        CLOUDY    63  54  72 E8        29.95S
MUNCIE*        CLOUDY    62  56  80 NE8       29.95R
INDIANAPOLIS   LGT RAIN  64  59  83 NE12      29.90S

$$
MIZ043>046-050>051-056>058-064>065-071>073-077>080-031400-
SOUTHWEST LOWER MICHIGAN

CITY           SKY/WX    TMP DP  RH WIND       PRES   REMARKS
BATTLE CREEK   MOSUNNY   63  51  65 E6        30.01S
BENTON HARBOR  MOSUNNY   63  56  78 SE6       29.99R
COLDWATER*     PTSUNNY   59  53  78 E5        30.00S
HILLSDALE*       N/A     61  53  74 E6        30.01S HAZE
HOLLAND        PTSUNNY   61  52  72 CALM      30.01S
GRAND RAPIDS   PTSUNNY   59  51  75 E5        30.01S
KALAMAZOO      MOSUNNY   62  53  72 CALM      30.01R
STURGIS*       PTSUNNY   61  55  82 E5        29.99S
THREE RIVERS*  FAIR      60  55  83 CALM      30.01R

$$
OHZ001>008-015>018-024>025-031400-
NORTHWEST OHIO

CITY           SKY/WX    TMP DP  RH WIND       PRES   REMARKS
DEFIANCE       PTSUNNY   63  56  78 E6        29.99R
FINDLAY        PTSUNNY   64  55  72 E7        29.97R
TOLEDO EXPRESS PTSUNNY   63  55  75 NE7       29.99R
TOLEDO METCALF PTSUNNY   65  56  72 NE5       30.00S
LIMA           CLOUDY    63  56  78 E7        29.97R

$$
AND FOR LAKE MICHIGAN COASTAL AND OPEN LAKE BUOY OBSERVATIONS

STATION/POSITION TEMP    WIND        PRES    VSBY  WAVE
                 AIR SEA DIR/SP/G                  HT/PER
                 (F)     (DEG/KT/KT) (MB)    (MI)  (FT/S)
CALUMET HARBOR    63      50/  5/  6   N/A
MICHIGAN CITY     61     100/  4/  5   N/A
BURNS HARBOR      65     120/ 10/ 15 1015.6R
SAINT JOSEPH      60      10/  2/  3   N/A
4 MI NW BRIDGMAN  60 61                N/A           1/ 4
MICHIGAN CITY     62 63  120/  8/ 12   N/A           1/ 4

$$
&&



USA.gov is the U.S. government's official web portal to all federal, state and local government web resources and services.